| time (UTC) | temp C | wind direction | speed KPH | gust KPH | rain 1hr cm | rain 24hr cm | rain mn cm | humidity % | barometer mb |
| 20260506174732 | 13 | 28 | 9.7 | 20.9 | 0.00 | 0.00 | 0.00 | 84 | 1013.1 |
| 20260506173732 | 13 | 28 | 9.7 | 20.9 | 0.00 | 0.00 | 0.00 | 84 | 1013.1 |
| 20260506172732 | 13 | 28 | 9.7 | 20.9 | 0.00 | 0.00 | 0.00 | 84 | 1013.1 |
| 20260506171732 | 13 | 28 | 9.7 | 20.9 | 0.00 | 0.00 | 0.00 | 84 | 1013.1 |
| 20260506170733 | 13 | 28 | 9.7 | 20.9 | 0.00 | 0.00 | 0.00 | 84 | 1013.1 |
| 20260506152731 | 12 | 10 | 6.4 | 25.7 | 0.00 | 0.00 | 0.00 | 84 | 1014.3 |
| 20260506151732 | 12 | 10 | 6.4 | 25.7 | 0.00 | 0.00 | 0.00 | 84 | 1014.3 |
| 20260506150731 | 12 | 10 | 6.4 | 25.7 | 0.00 | 0.00 | 0.00 | 84 | 1014.3 |
| 20260506144732 | 12 | 12 | 9.7 | 22.5 | 0.00 | 0.00 | 0.00 | 81 | 1012.7 |
| 20260506143731 | 12 | 12 | 9.7 | 22.5 | 0.00 | 0.00 | 0.00 | 81 | 1012.7 |
| 20260506142732 | 12 | 12 | 9.7 | 22.5 | 0.00 | 0.00 | 0.00 | 81 | 1012.7 |
| 20260506140732 | 12 | 12 | 9.7 | 22.5 | 0.00 | 0.00 | 0.00 | 81 | 1012.7 |
| 20260506133731 | 12 | 347 | 9.7 | 20.9 | 0.00 | 0.00 | 0.00 | 81 | 1011.8 |
| 20260506132732 | 12 | 347 | 9.7 | 20.9 | 0.00 | 0.00 | 0.00 | 81 | 1011.8 |
| 20260506130732 | 12 | 347 | 9.7 | 20.9 | 0.00 | 0.00 | 0.00 | 81 | 1011.8 |
| 20260506123731 | 12 | 8 | 9.7 | 22.5 | 0.00 | 0.00 | 0.00 | 81 | 1011.3 |
| 20260506120731 | 12 | 8 | 9.7 | 22.5 | 0.00 | 0.00 | 0.00 | 81 | 1011.3 |
| 20260506115732 | 13 | 360 | 6.4 | 22.5 | 0.00 | 0.00 | 0.00 | 82 | 1010.0 |
| 20260506114731 | 13 | 360 | 6.4 | 22.5 | 0.00 | 0.00 | 0.00 | 82 | 1010.0 |
| 20260506113731 | 13 | 360 | 6.4 | 22.5 | 0.00 | 0.00 | 0.00 | 82 | 1010.0 |
| 20260506111731 | 13 | 360 | 6.4 | 22.5 | 0.00 | 0.00 | 0.00 | 82 | 1010.0 |
| 20260506110731 | 13 | 360 | 6.4 | 22.5 | 0.00 | 0.00 | 0.00 | 82 | 1010.0 |
| 20260506105733 | 13 | 6 | 3.2 | 17.7 | 0.00 | 0.00 | 0.00 | 84 | 1009.5 |
| 20260506103731 | 13 | 6 | 3.2 | 17.7 | 0.00 | 0.00 | 0.00 | 84 | 1009.5 |
| 20260506100731 | 13 | 6 | 3.2 | 17.7 | 0.00 | 0.00 | 0.00 | 84 | 1009.5 |
| 20260506093731 | 16 | 305 | 6.4 | 12.9 | 0.00 | 0.00 | 0.00 | 79 | 1009.0 |
| 20260506092734 | 16 | 305 | 6.4 | 12.9 | 0.00 | 0.00 | 0.00 | 79 | 1009.0 |
| 20260506090731 | 16 | 305 | 6.4 | 12.9 | 0.00 | 0.00 | 0.00 | 79 | 1009.0 |
| 20260506083731 | 16 | 7 | 6.4 | 19.3 | 0.00 | 0.00 | 0.00 | 79 | 1008.3 |
| 20260506080732 | 16 | 7 | 6.4 | 19.3 | 0.00 | 0.00 | 0.00 | 79 | 1008.3 |
| 20260506050732 | 20 | 355 | 3.2 | 17.7 | 0.00 | 0.00 | 0.00 | 76 | 1008.1 |
| 20260506043732 | 21 | 326 | 6.4 | 19.3 | 0.00 | 0.00 | 0.00 | 73 | 1007.9 |
| 20260506040732 | 21 | 326 | 6.4 | 19.3 | 0.00 | 0.00 | 0.00 | 73 | 1007.9 |
| 20260506033732 | 23 | 308 | 6.4 | 19.3 | 0.00 | 0.00 | 0.00 | 69 | 1007.1 |
| 20260506032731 | 23 | 308 | 6.4 | 19.3 | 0.00 | 0.00 | 0.00 | 69 | 1007.1 |
| 20260506031734 | 23 | 308 | 6.4 | 19.3 | 0.00 | 0.00 | 0.00 | 69 | 1007.1 |
| 20260506030732 | 23 | 308 | 6.4 | 19.3 | 0.00 | 0.00 | 0.00 | 69 | 1007.1 |
| 20260506024733 | 25 | 198 | 3.2 | 6.4 | 0.00 | 0.00 | 0.00 | 80 | 1005.5 |
| 20260506023731 | 25 | 198 | 3.2 | 6.4 | 0.00 | 0.00 | 0.00 | 80 | 1005.5 |
| 20260506020732 | 25 | 198 | 3.2 | 6.4 | 0.00 | 0.00 | 0.00 | 80 | 1005.5 |
| 20260506014731 | 26 | 193 | 9.7 | 22.5 | 0.00 | 0.00 | 0.00 | 77 | 1004.4 |
| 20260506010732 | 26 | 193 | 9.7 | 22.5 | 0.00 | 0.00 | 0.00 | 77 | 1004.4 |
| 20260506004732 | 27 | 180 | 12.9 | 25.7 | 0.00 | 0.00 | 0.00 | 75 | 1004.2 |
| 20260506001732 | 27 | 180 | 12.9 | 25.7 | 0.00 | 0.00 | 0.00 | 75 | 1004.2 |
| 20260505234731 | 28 | 181 | 12.9 | 27.4 | 0.00 | 0.00 | 0.00 | 71 | 1003.9 |
| 20260505233731 | 28 | 181 | 12.9 | 27.4 | 0.00 | 0.00 | 0.00 | 71 | 1003.9 |
| 20260505230731 | 28 | 181 | 12.9 | 27.4 | 0.00 | 0.00 | 0.00 | 71 | 1003.9 |
| 20260505223731 | 30 | 149 | 9.7 | 24.1 | 0.00 | 0.00 | 0.00 | 66 | 1003.7 |
| 20260505221733 | 30 | 149 | 9.7 | 24.1 | 0.00 | 0.00 | 0.00 | 66 | 1003.7 |
| 20260505220731 | 30 | 149 | 9.7 | 24.1 | 0.00 | 0.00 | 0.00 | 66 | 1003.7 |
| 20260505213731 | 31 | 205 | 9.7 | 20.9 | 0.00 | 0.00 | 0.00 | 63 | 1004.1 |
| 20260505210731 | 31 | 205 | 9.7 | 20.9 | 0.00 | 0.00 | 0.00 | 63 | 1004.1 |
| 20260505205731 | 30 | 201 | 12.9 | 30.6 | 0.00 | 0.00 | 0.00 | 66 | 1004.8 |
| 20260505203731 | 30 | 201 | 12.9 | 30.6 | 0.00 | 0.00 | 0.00 | 66 | 1004.8 |
| 20260505201731 | 30 | 201 | 12.9 | 30.6 | 0.00 | 0.00 | 0.00 | 66 | 1004.8 |
| 20260505200731 | 30 | 201 | 12.9 | 30.6 | 0.00 | 0.00 | 0.00 | 66 | 1004.8 |
| 20260505195731 | 27 | 185 | 16.1 | 27.4 | 0.00 | 0.00 | 0.00 | 69 | 1005.2 |
| 20260505194732 | 27 | 185 | 16.1 | 27.4 | 0.00 | 0.00 | 0.00 | 69 | 1005.2 |
| 20260505190731 | 27 | 185 | 16.1 | 27.4 | 0.00 | 0.00 | 0.00 | 69 | 1005.2 |
| 20260505185731 | 26 | 191 | 17.7 | 30.6 | 0.00 | 0.00 | 0.00 | 75 | 1005.4 |
| 20260505184732 | 26 | 191 | 17.7 | 30.6 | 0.00 | 0.00 | 0.00 | 75 | 1005.4 |
| 20260505181732 | 26 | 191 | 17.7 | 30.6 | 0.00 | 0.00 | 0.00 | 75 | 1005.4 |